Location: Castro Valley
(37.6940°N, 122.0850°W)
Time: 04:34:04
(UTC-07:00)

PANSAT - Visible Passes

Search period start: 26 April 2015 00:00
Search period end: 06 May 2015 00:00
Orbit: 485 x 491 km, 28.5° (Epoch: 25 April)

Date Brightness Start Highest point End Pass type
(mag) Time Alt. Az. Time Alt. Az. Time Alt. Az.
02 May 9.8 05:40:24 10° SSW 05:42:22 14° SSE 05:44:24 10° SE visible
03 May 9.8 05:13:05 10° SSW 05:15:07 14° SSE 05:17:12 10° SE visible
04 May 9.6 04:47:12 14° S 04:47:51 14° SSE 04:50:00 10° SE visible
05 May 9.8 04:21:20 14° SSE 04:21:20 14° SSE 04:22:47 10° SE visible
